Date String (YYYY-MM-DD hh:mm:ss) UTC,Instrument flags,Ambient pressure (hPa),Sample flow (lpm),Bypass flow (lpm),Sample temperature (°C),Ambient temperature (°C),ASC tube jacket temperature (°C),LED temperature (°C),Box temperature (°C),Sample RH (%),Span deviation,Mass concentration (μg/m³),Mass concentration (μg/m³),Mass concentration (μg/m³)
DateTimeUTC,F1_M11,P_M11,Q1_M11,Q2_M11,T1_M11,T2_M11,T3_M11,T4_M11,T5_M11,U1_M11,ZSPAN_M11,X0_M11,X2_M11,X1_M11
2022-05-25 20:00:00,,0825.0,5.01,0.00,29.1,28.2,00.0,38.0,30.9,12.8,0000.0,0004.76,0002.41,0002.04
2022-05-25 20:01:00,,0825.0,5.01,0.00,29.1,28.2,00.0,38.0,31.0,12.9,0000.0,0004.75,0002.42,0002.06
2022-05-25 20:02:00,,0825.0,5.00,0.00,29.1,28.3,00.0,38.0,31.0,13.4,0000.0,0004.81,0002.44,0002.07
2022-05-25 20:03:00,,0824.9,4.99,0.00,29.1,28.3,00.0,38.0,31.0,13.4,0000.0,0005.15,0002.45,0002.07
2022-05-25 20:04:00,,0824.9,5.00,0.00,29.2,28.3,00.0,38.0,31.0,13.9,0000.0,0004.48,0002.45,0002.07
2022-05-25 20:05:00,,0824.9,5.00,0.00,29.2,28.3,00.0,38.0,31.0,13.3,0000.0,0003.84,0002.45,0002.07
2022-05-25 20:06:00,,0824.9,5.00,0.00,29.2,28.3,00.0,38.0,31.0,13.4,0000.0,0003.85,0002.45,0002.08
2022-05-25 20:07:00,,0824.9,5.00,0.00,29.2,28.3,00.0,38.0,31.0,12.9,0000.0,0003.91,0002.49,0002.10
2022-05-25 20:08:00,,0824.9,5.00,0.00,29.2,28.3,00.0,38.0,31.1,13.1,0000.0,0003.95,0002.47,0002.09
2022-05-25 20:09:00,,0824.9,5.01,0.00,29.2,28.4,00.0,38.0,31.1,13.6,0000.0,0004.92,0002.44,0002.07
2022-05-25 20:10:00,,0824.9,5.00,0.00,29.2,28.4,00.0,38.1,31.1,12.7,0000.0,0004.92,0002.44,0002.07
2022-05-25 20:11:00,,0824.9,4.99,0.00,29.2,28.4,00.0,38.1,31.1,12.6,0000.0,0004.93,0002.44,0002.06
2022-05-25 20:12:00,,0824.9,5.01,0.00,29.2,28.4,00.0,38.1,31.1,12.5,0000.0,0004.89,0002.42,0002.04
2022-05-25 20:13:00,,0824.9,4.99,0.00,29.2,28.4,00.0,38.1,31.1,13.0,0000.0,0004.68,0002.36,0002.02
2022-05-25 20:14:00,,0824.9,5.00,0.00,29.3,28.4,00.0,38.1,31.1,13.2,0000.0,0004.26,0002.32,0002.01
2022-05-25 20:15:00,,0824.9,4.99,0.00,29.3,28.4,00.0,38.1,31.1,13.4,0000.0,0004.29,0002.34,0002.02
2022-05-25 20:16:00,,0824.9,5.01,0.00,29.3,28.4,00.0,38.1,31.1,12.3,0000.0,0004.24,0002.32,0002.03
2022-05-25 20:17:00,,0824.9,5.00,0.00,29.3,28.5,00.0,38.1,31.1,12.1,0000.0,0004.26,0002.34,0002.05
2022-05-25 20:18:00,,0824.9,4.99,0.00,29.3,28.5,00.0,38.1,31.2,13.2,0000.0,0004.30,0002.35,0002.05
2022-05-25 20:19:00,,0824.9,5.01,0.00,29.3,28.5,00.0,38.2,31.2,13.2,0000.0,0004.38,0002.38,0002.06
2022-05-25 20:20:00,,0824.8,5.01,0.00,29.4,28.5,00.0,38.2,31.2,13.4,0000.0,0003.40,0002.44,0002.08
2022-05-25 20:21:00,,0824.9,5.00,0.00,29.4,28.6,00.0,38.2,31.2,12.8,0000.0,0003.32,0002.42,0002.08
2022-05-25 20:22:00,,0824.9,4.99,0.00,29.4,28.6,00.0,38.2,31.2,12.5,0000.0,0003.25,0002.40,0002.09
2022-05-25 20:23:00,,0824.9,4.99,0.00,29.4,28.5,00.0,38.2,31.2,13.6,0000.0,0003.31,0002.41,0002.10
2022-05-25 20:24:00,,0824.9,5.02,0.00,29.4,28.5,00.0,38.2,31.2,13.8,0000.0,0003.44,0002.48,0002.13
2022-05-25 20:25:00,,0824.9,5.01,0.00,29.4,28.5,00.0,38.2,31.2,13.1,0000.0,0003.57,0002.54,0002.14
2022-05-25 20:26:00,,0824.9,4.99,0.00,29.4,28.5,00.0,38.2,31.2,12.5,0000.0,0003.67,0002.58,0002.14
2022-05-25 20:27:00,,0824.9,5.00,0.00,29.4,28.5,00.0,38.3,31.2,12.6,0000.0,0003.76,0002.61,0002.14
2022-05-25 20:28:00,,0824.9,5.00,0.00,29.4,28.5,00.0,38.3,31.2,12.7,0000.0,0003.85,0002.63,0002.14
2022-05-25 20:29:00,,0824.9,5.00,0.00,29.4,28.5,00.0,38.3,31.2,12.7,0000.0,0003.76,0002.63,0002.14
2022-05-25 20:30:00,,0824.9,5.01,0.00,29.4,28.6,00.0,38.3,31.3,12.6,0000.0,0003.71,0002.62,0002.15
2022-05-25 20:31:00,,0824.9,5.01,0.00,29.4,28.6,00.0,38.3,31.3,13.0,0000.0,0003.72,0002.63,0002.15
2022-05-25 20:32:00,,0824.9,4.99,0.00,29.4,28.6,00.0,38.3,31.3,13.0,0000.0,0003.81,0002.69,0002.16
2022-05-25 20:33:00,,0824.8,4.99,0.00,29.4,28.6,00.0,38.3,31.3,12.4,0000.0,0003.86,0002.71,0002.16
2022-05-25 20:34:00,,0824.8,5.01,0.00,29.5,28.6,00.0,38.3,31.3,12.5,0000.0,0004.07,0002.71,0002.16
2022-05-25 20:35:00,,0824.9,5.01,0.00,29.5,28.6,00.0,38.3,31.3,12.5,0000.0,0004.04,0002.68,0002.15
2022-05-25 20:36:00,,0824.8,5.01,0.00,29.5,28.6,00.0,38.3,31.3,12.6,0000.0,0004.10,0002.66,0002.16
2022-05-25 20:37:00,,0824.8,5.00,0.00,29.5,28.6,00.0,38.3,31.3,12.3,0000.0,0004.16,0002.65,0002.17
2022-05-25 20:38:00,,0824.8,5.00,0.00,29.5,28.6,00.0,38.4,31.3,12.7,0000.0,0004.61,0002.63,0002.17
2022-05-25 20:39:00,,0824.8,5.01,0.00,29.5,28.6,00.0,38.4,31.3,13.1,0000.0,0005.08,0002.62,0002.16
2022-05-25 20:40:00,,0824.8,5.01,0.00,29.5,28.6,00.0,38.4,31.3,12.8,0000.0,0005.21,0002.63,0002.15
2022-05-25 20:41:00,,0824.7,4.99,0.00,29.5,28.6,00.0,38.4,31.4,11.9,0000.0,0005.29,0002.64,0002.16
2022-05-25 20:42:00,,0824.7,5.00,0.00,29.5,28.7,00.0,38.4,31.4,12.5,0000.0,0005.36,0002.64,0002.16
2022-05-25 20:43:00,,0824.7,5.00,0.00,29.5,28.7,00.0,38.4,31.4,12.4,0000.0,0005.25,0002.58,0002.16
2022-05-25 20:44:00,,0824.7,5.01,0.00,29.6,28.7,00.0,38.4,31.4,13.0,0000.0,0005.28,0002.59,0002.16
2022-05-25 20:45:00,,0824.7,5.00,0.00,29.6,28.7,00.0,38.4,31.4,12.7,0000.0,0005.16,0002.57,0002.17
2022-05-25 20:46:00,,0824.7,5.00,0.00,29.6,28.7,00.0,38.4,31.4,13.4,0000.0,0005.40,0002.61,0002.18
2022-05-25 20:47:00,,0824.7,5.00,0.00,29.6,28.7,00.0,38.4,31.4,12.9,0000.0,0005.35,0002.62,0002.19
2022-05-25 20:48:00,,0824.7,5.00,0.00,29.6,28.7,00.0,38.5,31.4,12.3,0000.0,0005.30,0002.64,0002.19
2022-05-25 20:49:00,,0824.7,4.99,0.00,29.6,28.8,00.0,38.5,31.4,12.3,0000.0,0005.00,0002.69,0002.19
2022-05-25 20:50:00,,0824.8,5.00,0.00,29.6,28.8,00.0,38.5,31.4,12.5,0000.0,0004.56,0002.69,0002.19
2022-05-25 20:51:00,,0824.7,5.00,0.00,29.6,28.8,00.0,38.5,31.5,11.9,0000.0,0004.42,0002.67,0002.19
2022-05-25 20:52:00,,0824.7,5.00,0.00,29.6,28.8,00.0,38.5,31.5,11.9,0000.0,0004.31,0002.65,0002.19
2022-05-25 20:53:00,,0824.7,4.99,0.00,29.7,28.8,00.0,38.5,31.5,12.2,0000.0,0004.11,0002.61,0002.19
2022-05-25 20:54:00,,0824.7,4.99,0.00,29.7,28.8,00.0,38.5,31.5,11.8,0000.0,0004.44,0002.61,0002.19
2022-05-25 20:55:00,,0824.7,5.01,0.00,29.7,28.8,00.0,38.5,31.5,11.5,0000.0,0004.38,0002.58,0002.19
2022-05-25 20:56:00,,0824.7,5.01,0.00,29.7,28.8,00.0,38.5,31.5,11.7,0000.0,0004.30,0002.59,0002.18
2022-05-25 20:57:00,,0824.6,5.01,0.00,29.7,28.8,00.0,38.5,31.5,12.3,0000.0,0004.84,0002.60,0002.17
2022-05-25 20:58:00,,0824.7,5.00,0.00,29.7,28.8,00.0,38.5,31.5,12.7,0000.0,0005.19,0002.57,0002.17
2022-05-25 20:59:00,,0824.7,5.00,0.00,29.7,28.8,00.0,38.6,31.5,13.1,0000.0,0005.33,0002.55,0002.17
